Location: Dahnsdorf
(52.1012°N, 12.6692°E)
Time: 05:26:08
(UTC+00:00)

Daily predictions for brighter satellites

Satellite Brightness Start Highest point End
(mag) Time Altitude Azimuth Time Altitude Azimuth Time Altitude Azimuth
Cosmos 2297 Rocket 4.4 02:57:52 17° NNE 02:57:52 17° NNE 02:59:10 10° NNE
Cosmos 2227 Rocket 4.3 03:02:39 19° NNE 03:02:39 19° NNE 03:04:09 10° NNE
ATLAS 5 CENTAUR R/B 3.8 03:29:17 23° NNE 03:29:17 23° NNE 03:31:26 10° NE
COSMO-SKYMED 1 4.4 03:26:51 10° SE 03:29:19 28° ESE 03:29:19 28° ESE
CZ-4C R/B 4.4 03:43:05 21° SSW 03:43:05 21° SSW 03:46:03 10° S
Okean O Rocket 4.3 03:46:03 10° NE 03:49:08 18° E 03:52:11 10° SE
Cosmos 2026 Rocket 4.1 03:50:20 19° N 03:54:54 74° ENE 04:01:09 10° SSE
Cosmos 2056 Rocket 4.5 04:03:46 35° N 04:03:46 35° N 04:06:48 10° NNE
Geosat 3.9 03:57:53 10° SE 04:02:55 83° NE 04:02:59 83° NE
Meteor 1-19 Rocket 4.4 04:01:55 28° N 04:04:52 67° ENE 04:10:28 10° SSE
Cosmos 2263 Rocket 2.1 04:12:52 35° SSW 04:15:22 81° ESE 04:20:58 10° NNE
GEOS 3 Rocket 3.6 04:11:46 10° SSE 04:16:45 62° SW 04:16:45 62° SW
Cosmos 1420 Rocket 3.8 04:15:56 56° SSW 04:17:05 88° WNW 04:22:19 10° NNE
SKYMED 2 3.9 04:14:30 10° SSE 04:17:58 56° S 04:17:58 56° S
Cosmos 1634 Rocket 3.9 04:16:27 10° S 04:22:39 87° E 04:28:51 10° N
USA 234 3.5 04:19:09 10° ENE 04:25:39 66° SE 04:30:18 20° SW
Meteor 1-20 Rocket 4.2 04:20:17 10° SSW 04:26:09 81° WNW 04:32:01 10° NNE
Cosmos 2034 Rocket 4.3 04:29:07 44° WNW 04:29:07 44° WNW 04:34:44 10° N
Cosmos 1627 Rocket 4.4 04:24:47 20° NNW 04:29:13 65° W 04:35:27 10° S
Cosmos 1741 Rocket 3.9 04:30:24 58° W 04:30:41 59° WSW 04:35:48 10° S
FENGYUN 3A 4.2 04:25:37 10° NNE 04:30:57 58° E 04:36:15 10° S
ATLAS CENTAUR R/B 2.2 04:36:18 36° N 04:37:24 44° NE 04:41:18 10° ESE
SJ-12 3.9 04:34:00 10° NNE 04:38:09 80° ESE 04:42:15 10° S
Cosmos 2297 Rocket 3.8 04:39:41 19° NNW 04:39:41 19° NNW 04:42:49 10° NNE
METEOR-M 4.4 04:35:41 10° NNE 04:41:03 71° ESE 04:46:23 10° S
Cosmos 1655 Rocket 4.1 04:34:54 10° N 04:41:10 79° E 04:47:24 10° SSE
Cosmos 1484 Rocket 3.3 04:37:50 10° N 04:40:45 46° N 04:40:45 46° N
Cosmos 2227 4.3 04:41:22 39° WSW 04:43:16 56° NW 04:48:59 10° NNE
Cosmos 1092 Rocket 4.3 04:43:01 39° WNW 04:43:43 40° W 04:49:21 10° SSW
Cosmos 2227 Rocket 3.8 04:44:29 19° NNW 04:44:29 19° NNW 04:47:48 10° NNE
COSMOS 2406 4.3 04:40:06 16° NNW 04:44:16 41° NE 04:49:37 10° ESE
Cosmos 1844 Rocket 4.2 04:42:17 10° S 04:47:22 37° ESE 04:52:27 10° NE
Cosmos 1452 Rocket 3.4 04:43:54 17° SW 04:47:58 66° WNW 04:53:16 10° NNE
Cosmos 1850 Rocket 4.4 04:48:20 41° W 04:48:53 42° WSW 04:53:52 10° S
USA 116 4.2 04:44:35 10° S 04:49:17 69° WSW 04:52:59 19° NNW
Meteor 1-13 Rocket 4.3 04:43:47 10° N 04:49:20 74° ENE 04:54:56 10° SSE
Timation 1 Rocket 4.2 04:43:59 10° SW 04:49:56 76° WNW 04:55:58 10° NNE
CZ-4B R/B 3.8 04:44:48 10° NNE 04:50:22 61° ESE 04:55:58 10° S
Okean 3 3.3 04:49:17 34° NNW 04:51:04 76° W 04:55:15 10° S
Cosmos 2142 Rocket 4.4 04:44:59 10° SSW 04:51:24 78° W 04:57:49 10° N
Cosmos 44 3.6 04:47:39 10° SSW 04:52:16 60° SE 04:56:42 10° NE
DMSP B5D1-3 4.4 04:49:18 10° SSE 04:54:28 82° WSW 04:59:22 12° NNW
Cosmos 371 Rocket 3.8 04:52:00 10° S 04:56:47 61° ESE 05:01:36 10° NNE
ALOS 2.1 04:52:36 10° NNE 04:57:18 83° WNW 05:01:59 10° SSW
Meteor 2-13 Rocket 4.3 04:52:09 10° NNW 04:58:18 78° W 05:04:27 10° S
PSLV R/B 4.0 04:55:22 10° N 04:59:22 50° WNW 05:03:21 10° SW
Cosmos 1943 4.5 05:01:28 21° WSW 05:01:28 21° WSW 05:04:36 10° SSW
NOAA 6 4.2 04:56:43 10° NNE 05:01:52 76° ESE 05:07:00 10° S
COSMO-SKYMED 1 3.5 05:03:15 10° SSW 05:06:31 29° WSW 05:06:31 29° WSW
Cosmos 1536 4.1 05:03:22 10° SSE 05:07:14 44° E 05:11:07 10° NNE
H-2A R/B 4.2 05:08:04 10° NNE 05:11:37 39° E 05:15:11 10° SSE
SL-23 DEB 4.3 05:10:00 21° SW 05:11:47 44° SSE 05:15:07 10° E
ATLAS 5 CENTAUR R/B 3.2 05:10:50 21° NNW 05:12:22 24° N 05:16:48 10° NE
Cosmos 2082 Rocket 3.7 05:08:17 10° NNW 05:13:12 29° NE 05:18:05 10° E
Cosmos 2221 Rocket 4.1 05:13:27 29° NW 05:14:49 37° W 05:18:52 10° SSW
CZ-2C R/B 4.1 05:12:03 10° N 05:13:04 14° NNW 05:13:04 14° NNW
MOS 1-B 4.3 05:12:30 10° N 05:18:11 58° WNW 05:23:50 10° SW
Cosmos 405 2.9 05:17:00 24° NNW 05:18:55 61° W 05:22:25 10° S
PAYLOAD B 4.2 05:15:55 10° NNE 05:21:24 66° WNW 05:26:53 10° SSW
Cosmos 1733 Rocket 2.9 05:17:13 10° SSW 05:21:32 80° W 05:25:54 10° N
Meteor 1-11 Rocket 4.0 05:16:44 10° S 05:22:31 76° E 05:28:27 10° NNE
Helios 1A Rocket 2.8 05:19:32 10° N 05:23:34 70° WNW 05:27:34 10° SSW
Cosmos 2266 Rocket 3.9 05:18:16 10° NNW 05:24:31 76° W 05:30:37 10° S
Okean O Rocket 1.5 05:21:32 10° N 05:25:54 63° WNW 05:30:15 10° SSW
Cosmos 1340 3.4 05:25:15 10° SW 05:28:36 30° WNW 05:31:59 10° N
USA 238 DEB 4.4 05:22:08 10° SSW 05:28:40 58° SE 05:35:27 10° NE
USA 238 4.4 05:22:16 10° SSW 05:28:46 57° SE 05:35:33 10° NE
Cosmos 1346 Rocket 3.3 05:25:20 10° SW 05:28:52 33° WNW 05:32:28 10° N
Cosmos 1331 Rocket 3.9 05:25:58 10° SSW 05:31:07 82° WNW 05:36:22 10° NNE
Cosmos 2180 Rocket 4.4 05:26:31 10° SSW 05:32:35 62° WNW 05:38:44 10° N
Cosmos 1500 3.2 05:33:48 10° SSW 05:37:35 57° WNW 05:41:22 10° N
Meteor 1-5 Rocket 4.3 05:35:28 10° SSW 05:41:22 70° WNW 05:47:09 10° N
Meteor 2-4 Rocket 4.2 05:37:00 10° NNW 05:41:57 35° W 05:46:47 10° SSW
Cosmos 1110 Rocket 4.0 05:41:01 10° SW 05:46:08 59° WNW 05:51:16 10° NNE
Cosmos 1674 Rocket 3.9 05:43:21 10° NNW 05:47:26 40° W 05:51:29 10° SSW
Meteor 2-19 Rocket 4.4 05:41:22 10° NNW 05:47:34 84° W 05:53:43 10° S
Okean-O 3.7 05:44:19 10° NNE 05:48:39 50° E 05:52:58 10° S
Cosmos 1975 Rocket 3.5 05:44:24 10° N 05:48:50 65° ENE 05:53:17 10° SSE
Cosmos 1066 Rocket 4.1 05:45:49 10° NNW 05:51:26 81° W 05:56:52 10° S
IRIDIUM 104 4.3 05:46:31 10° N 05:51:43 65° W 05:56:52 10° S
YAOGAN 6 4.2 05:48:13 10° NNE 05:51:44 39° E 05:55:14 10° SSE
ADEOS Rocket 3.2 05:47:34 10° S 05:54:18 65° WSW 06:00:22 10° NNW
Cosmos 304 Rocket 3.8 05:50:33 10° SSW 05:55:20 90° ESE 06:00:11 10° NNE
Cosmos 1782 Rocket 4.3 05:51:07 10° S 05:55:27 56° E 05:59:47 10° NNE
Cosmos 2278 Rocket 4.2 05:50:42 10° SSE 05:55:40 33° ESE 06:00:40 10° NE
Cosmos 2279 Rocket 4.5 05:50:43 10° SW 05:56:23 36° WNW 06:02:07 10° N
Cosmos 2263 Rocket 3.1 05:55:16 10° W 05:59:56 27° NW 06:04:38 10° NNE
Cosmos 1486 Rocket 4.2 05:55:01 10° NNW 06:00:13 56° WSW 06:05:20 10° S
IRIDIUM 114 4.4 05:55:42 10° NNW 06:00:48 55° W 06:05:53 10° SSW
CZ-2C R/B 3.9 05:57:38 10° S 06:02:21 64° WSW 06:07:08 10° NNW
Cosmos 1441 Rocket 3.9 05:59:47 10° S 06:03:41 61° E 06:07:35 10° NNE
Cosmos 1378 Rocket 4.1 06:00:54 10° NNW 06:05:00 38° W 06:09:05 10° SSW
USA 81 4.2 06:01:15 10° NNW 06:06:23 53° W 06:11:29 10° SSW
Sich 1 Rocket 4.3 06:04:13 10° S 06:08:39 59° E 06:13:03 10° NNE
USA 234 3.3 06:02:15 10° ENE 06:08:45 69° NNW 06:15:14 10° W
FENGYUN 3A 4.5 06:06:26 10° N 06:10:59 28° WNW 06:15:30 10° WSW
Envisat 3.2 06:07:42 10° NNE 06:12:49 78° ESE 06:17:54 10° S
Cosmos 1833 Rocket 2.8 06:09:02 10° NNW 06:14:44 83° ENE 06:20:24 10° SSE
ATLAS CENTAUR R/B 2.2 06:12:30 10° WNW 06:16:15 33° WSW 06:19:46 10° S
Cosmos 332 Rocket 4.2 06:12:11 10° SW 06:16:49 41° NW 06:21:28 10° NNE
AQUARIUS 4.2 06:13:02 10° N 06:17:28 56° WNW 06:21:51 10° SSW
Meteor 1-4 Rocket 3.5 06:14:42 10° N 06:18:23 50° ENE 06:21:59 10° SSE
NOSS 3-2 (C) 4.0 06:13:29 10° SSW 06:19:18 67° SE 06:25:59 10° NE
Cosmos 1378 3.3 06:16:46 10° N 06:20:32 80° E 06:24:16 10° SSE
NOAA 12 4.1 06:15:36 10° NNE 06:20:52 85° WNW 06:26:07 10° SSW
ATLAS 3B R/B 3.8 06:14:56 10° SSW 06:21:20 48° ESE 06:27:40 10° NE
CZ-4 R/B 2.1 06:17:42 10° NNE 06:21:33 56° E 06:25:26 10° S
Cosmos 1666 3.0 06:18:03 10° SSW 06:21:42 44° WNW 06:25:22 10° N
SMAP 3.3 06:18:50 10° N 06:23:19 49° WNW 06:27:48 10° SW
Cosmos 2297 Rocket 4.2 06:23:37 10° NNW 06:25:17 11° N 06:26:57 10° NNE
Cosmos 1553 Rocket 4.4 06:20:08 10° S 06:26:15 71° E 06:32:30 10° NNE
COSMOS 2406 3.6 06:23:15 10° NW 06:28:41 47° WSW 06:34:04 10° S
SAR-Lupe-2 4.2 06:26:38 10° SSW 06:29:59 37° W 06:33:23 10° NNW
Cosmos 2227 Rocket 4.2 06:28:38 10° NNW 06:30:17 11° N 06:31:56 10° NNE
CZ-4B R/B 4.0 06:25:52 10° N 06:30:36 29° WNW 06:35:23 10° WSW
Cosmos 1844 Rocket 2.9 06:25:46 10° SW 06:31:09 48° NW 06:36:35 10° NNE
Radarsat Rocket 4.4 06:25:44 10° N 06:31:34 46° WNW 06:37:59 10° SW
